User: anonymous   Login
Location: *
(47.6569°N, 7.4256°E)
Time: 09:42:45
(UTC+00:00)
Language:

Cosmos 2242 Rocket - Orbit

View from above orbital plane
View from above orbital plane
View from above satellite
View from above satellite

Ground track
Ground track

The orbit data is extracted from the following two-line orbital elements,

1 22627U 93024B   20055.51952791 +.00000046 +00000-0 +32132-5 0  9994
2 22627 082.5197 267.8503 0023544 002.6291 357.5040 14.78165398447261
Epoch (UTC): 24 February 2020 12:28:07
Eccentricity: 0.0023544
inclination: 82.5197°
perigee height: 618 km
apogee height: 651 km
right ascension of ascending node: 267.8503°
argument of perigee: 2.6291°
revolutions per day: 14.78165398
mean anomaly at epoch: 357.5040°
orbit number at epoch: 44726

The dashed part of the orbit path shows where the satellite is in the earth's shadow,  

DLR